EUTELSAT 70B

Last updated on Sept. 28, 2020, 5:45 a.m. UTC

1 39020U 12069A   20271.85967861 -.00000066  00000-0  00000-0 0  9997
2 39020   0.0726  34.0116 0006029 154.4772 198.6185  1.00271446 28567
UTC
Height (km)
Latitude
Longitude
Inclination
Orbital Period
UTC large
Height (km)
Speed (km/s)
/
Latitude / Longitude
Inclination (degrees)
Orbital Period (minutes)
Azimuth
Elevation
Range (km)
Doppler Factor
iOS Compass Heading
iOS Angle

Next 30 passes for location: Hong Kong

Rise time Rise Azimuth (degrees) Set time Set Azimuth (degrees) Duration Max altitude (degrees)

No matching passes for this satellites